Location: Recife
(8.0585°S, 34.8848°W)
Time: 20:25:51
(UTC-03:00)

A-11 Canister half - Pass Details

Date: 22 April 2026
Orbit: 1523 x 1684 km, 47.3° (Epoch: 16 May)

Event Time Altitude Azimuth Distance (km) Brightness Sun altitude
Rises 05:46:29 0° 355° (N) 4,876 11.7 5.1°
Reaches altitude 10° 05:51:21 10° 14° (NNE) 3,865 11.5 6.3°
Maximum altitude 05:56:59 17° 50° (NE) 3,331 12.1 7.7°
Drops below altitude 10° 06:02:30 10° 86° (E) 3,799 13.5 9.0°
Sets 06:07:08 0° 105° (ESE) 4,756 12.8 10.1°
